Regional Weather Roundup
Issued by NWS Cleveland, OH

Home | Current Version | Previous Version | Graphics & Text | Print | Product List | Glossary On
Versions: 1 2 3 4 5 6 7 8 9 10 11 12 13 14 15 16 17 18 19 20 21 22 23 24 25 26 27 28 29 30 31 32 33 34 35 36 37 38 39 40 41 42 43 44 45 46 47 48 49 50
000
ASUS41 KCLE 120410
RWRCLE
OHIO REGIONAL WEATHER ROUNDUP
NATIONAL WEATHER SERVICE CLEVELAND, OH
1100 PM EST MON DEC 11 2017

NOTE: "FAIR" INDICATES FEW OR NO CLOUDS BELOW 12,000 FEET WITH NO
SIGNIFICANT WEATHER AND/OR OBSTRUCTIONS TO VISIBILITY.

OHZ001>008-015>018-024>027-034-035-043-044-120500-
   NORTHWEST OHIO

CITY           SKY/WX    TMP DP  RH WIND       PRES   REMARKS
DEFIANCE       CLOUDY    31  25  78 N9        29.67S WCI  23
FINDLAY        CLOUDY    34  25  69 SE5       29.61F WCI  30
TOLEDO EXPRESS CLOUDY    31  27  85 N5        29.66F WCI  26
TOLEDO EXEC    CLOUDY    32  25  75 NE5       29.66F WCI  27
LIMA           PTCLDY    34  27  75 S6        29.60F WCI  29
$$

OHZ009>014-019>023-028>033-038-089-120500-
   NORTHEAST OHIO

CITY           SKY/WX    TMP DP  RH WIND       PRES   REMARKS
CLE-HOPKINS    CLOUDY    34  25  69 SE7       29.66F WCI  28
CLE-LAKEFRONT  FLURRIES  34  23  64 SE13      29.63F WCI  25
CUY CO. ARPT   CLOUDY    34  25  69 S14       29.65F WCI  24
LORAIN-ELYRIA  CLOUDY    32  21  64 S5        29.63F WCI  27
ASHTABULA      CLOUDY    30  25  81 SE3       29.67F
AKRON-CANTON   CLOUDY    34  22  61 SE7       29.63F WCI  28
WOOSTER        CLOUDY    31  24  75 SE5       29.63F WCI  26
MANSFIELD      CLOUDY    34  24  67 SE12      29.61F WCI  25
YOUNGSTOWN     CLOUDY    31  23  72 SE7       29.65F WCI  24
$$

OHZ042-051>053-060>062-070>072-077>081-120500-
  SOUTHWEST OHIO

CITY           SKY/WX    TMP DP  RH WIND       PRES   REMARKS
CINC-COVINGTON CLOUDY    44  27  51 W16       29.70S
CINC-LUNKEN    CLOUDY    45  28  51 W13G20    29.72R
HAMILTON       CLOUDY    44  28  53 W10G18    29.70S
DAYTON         CLOUDY    37  29  72 W13       29.66R
WRIGHT-PAT AFB CLOUDY    40  28  62 W14       29.65S
DAYTON GENERAL PTCLDY    41  27  57 W12       29.67S
WILMINGTON     PTCLDY    40  29  64 W16       29.66S
$$

OHZ036-037-039>041-045>050-054>059-063>069-073>076-082>088-120500-
  CENTRAL AND SOUTHEAST OHIO

CITY           SKY/WX    TMP DP  RH WIND       PRES   REMARKS
COLUMBUS       CLOUDY    38  26  62 S7        29.63F
OSU AIRPORT    CLOUDY    37  27  67 S7        29.62F
BOLTON FIELD   CLOUDY    34  27  75 SW6       29.64F WCI  29
RICKENBACK AFB CLOUDY    33  27  77 S8        29.64F WCI  27
NEWARK         PTCLDY    30  25  81 SE3       29.63F
MARION         CLOUDY    34  26  72 S8        29.61  WCI  27
LANCASTER      CLOUDY    34  26  72 S6        29.64F WCI  29
ZANESVILLE     CLEAR     33  23  66 S6        29.65F WCI  28
NEW PHILLY     NOT AVBL
$$




USA.gov is the U.S. government's official web portal to all federal, state and local government web resources and services.